Weather History for Punta Gorda, FL

Change the Weather History Date:

Sunday, December 16, 2012

  Actual Average Record
Temperature  
Mean Temperature 70 °F -  
Max Temperature 82 °F 71 °F 84 °F (2000)
Min Temperature 57 °F 50 °F 33 °F (2010)
Cooling Degree Days 4    
Growing Degree Days 20 (Base 50)    
Moisture  
Dew Point 61 °F    
Average Humidity 82    
Maximum Humidity 100    
Minimum Humidity 49    
Precipitation  
Precipitation 0.01 in - - ()
Sea Level Pressure  
Sea Level Pressure 30.03 in    
Wind  
Wind Speed 4 mph (East)    
Max Wind Speed 10 mph    
Max Gust Speed -    
Visibility 8 miles    
Events      
Averages and records for this station are not official NWS values.
T = Trace of Precipitation, MM = Missing Value Source: NWS Daily Summary

Daily Weather History Graph

Daily Weather History Graph

Search for Another Location

Airport:

Trip Planner

Search our weather history database for the weather conditions in past years. The results will help you decide how hot, cold, wet, or windy it might be!

Date:

Astronomy

Dec. 16, 2012 Rise Set
Actual Time 7:10 AM EST 5:37 PM EST
Civil Twilight 6:44 AM EST 6:03 PM EST
Nautical Twilight 6:15 AM EST 6:32 PM EST
Astronomical Twilight 5:47 AM EST 7:00 PM EST
Moon 9:58 AM EST (12/16) 9:32 PM EST (12/16)
Length of Visible Light 11h 18m
Length of Day
10h 27m
Waxing Crescent, 16% of the Moon is Illuminated
Dec 16
Waxing Crescent
Dec 20
First Quarter
Dec 28
Full
Jan 4
Last Quarter
Jan 11
New

Hourly Weather History & Observations

Time (EST) Temp. Heat Index Dew Point Humidity Pressure Visibility Wind Dir Wind Speed Gust Speed Precip Events Conditions
12:53 AM 60.1 °F - 59.0 °F 96% 30.07 in 10.0 mi NE 3.5 mph - N/A   Clear
1:31 AM 59.0 °F - 57.2 °F 94% 30.06 in 4.0 mi ENE 4.6 mph - N/A   Clear
1:46 AM 59.0 °F - 57.2 °F 94% 30.06 in 2.0 mi ENE 3.5 mph - N/A   Clear
1:53 AM 59.0 °F - 57.9 °F 96% 30.06 in 2.0 mi ENE 3.5 mph - N/A   Clear
2:01 AM 59.0 °F - 57.2 °F 94% 30.06 in 1.8 mi ENE 4.6 mph - N/A   Clear
2:06 AM 59.0 °F - 57.2 °F 94% 30.06 in 3.0 mi ENE 4.6 mph - N/A   Clear
2:53 AM 57.9 °F - 57.9 °F 100% 30.06 in 10.0 mi ENE 4.6 mph - N/A   Clear
3:53 AM 60.1 °F - 59.0 °F 96% 30.04 in 10.0 mi East 5.8 mph - N/A   Clear
4:53 AM 57.9 °F - 57.0 °F 97% 30.05 in 9.0 mi East 4.6 mph - 0.01 in   Clear
5:53 AM 57.0 °F - 57.0 °F 100% 30.05 in 8.0 mi Calm Calm - N/A   Clear
6:53 AM 59.0 °F - 57.9 °F 96% 30.07 in 7.0 mi Calm Calm - N/A   Clear
8:53 AM 69.1 °F - 64.9 °F 87% 30.08 in 10.0 mi East 4.6 mph - N/A   Clear
9:53 AM 75.0 °F - 66.0 °F 73% 30.08 in 10.0 mi SE 6.9 mph - N/A   Clear
10:53 AM 78.1 °F - 64.0 °F 62% 30.07 in 10.0 mi SE 8.1 mph - N/A   Clear
11:53 AM 80.1 °F 81.5 °F 63.0 °F 56% 30.05 in 10.0 mi SE 10.4 mph - N/A   Clear
12:53 PM 81.0 °F 82.5 °F 64.0 °F 56% 30.01 in 10.0 mi SSE 9.2 mph - N/A   Clear
1:53 PM 82.0 °F 82.7 °F 61.0 °F 49% 29.98 in 10.0 mi Variable 4.6 mph - N/A   Scattered Clouds
2:53 PM 79.0 °F - 63.0 °F 58% 29.99 in 10.0 mi West 9.2 mph - N/A   Clear
3:53 PM 78.1 °F - 64.0 °F 62% 29.98 in 10.0 mi West 8.1 mph - N/A   Clear
4:53 PM 75.9 °F - 62.1 °F 62% 29.99 in 10.0 mi West 8.1 mph - N/A   Clear
5:53 PM 73.0 °F - 63.0 °F 71% 29.99 in 10.0 mi West 4.6 mph - N/A   Clear
6:53 PM 68.0 °F - 63.0 °F 84% 29.99 in 10.0 mi Calm Calm - N/A   Clear
7:53 PM 66.9 °F - 63.0 °F 87% 30.00 in 10.0 mi Calm Calm - N/A   Clear
8:53 PM 64.9 °F - 63.0 °F 93% 29.99 in 10.0 mi ESE 3.5 mph - N/A   Partly Cloudy
9:53 PM 64.0 °F - 61.0 °F 90% 30.01 in 10.0 mi Calm Calm - N/A   Mostly Cloudy
10:53 PM 66.0 °F - 63.0 °F 90% 30.01 in 10.0 mi Calm Calm - N/A   Mostly Cloudy
11:53 PM 66.9 °F - 64.0 °F 90% 30.02 in 10.0 mi Calm Calm - N/A   Overcast